Temperature
29 28 27 26 26 26 26 27 27 27 26 25 24 25 25 26 26 26 25 25 24 24 23 23 23 22 22 21 21 20 20 19 19 19 18 18 18 17 17 17 17 17 17 17
28 29 28 27 27 27 28 28 28 28 26 26 25 25 25 25 25 25 24 24 23 23 22 22 22 22 22 21 21 21 20 20 19 19 18 18 18 17 17 17 17 17 17 17
27 28 28 27 28 28 29 29 29 27 26 26 25 24 24 24 24 23 23 22 22 21 21 21 21 21 21 21 21 21 20 20 19 19 18 18 17 17 17 17 17 16 16 16
27 27 25 27 28 28 28 28 28 27 26 26 24 23 23 23 22 22 21 21 20 20 20 20 20 20 20 20 20 20 19 19 19 18 18 17 17 17 17 16 16 16 16 16
26 25 25 26 26 26 26 26 27 26 25 24 23 22 21 21 20 20 19 19 19 19 18 19 19 19 19 19 19 18 18 18 18 17 17 17 17 16 16 16 16 16 16 15
25 25 24 24 24 24 25 24 25 25 25 24 23 22 20 19 19 18 18 17 17 17 17 17 17 18 18 17 17 17 17 16 16 16 16 16 16 16 15 15 15 15 15 15
25 25 24 24 24 25 23 22 24 24 23 23 22 21 19 18 17 17 16 16 16 16 16 16 16 16 16 16 16 15 15 15 15 15 15 15 15 14 15 15 15 14 14 14
24 24 22 23 23 23 22 23 23 23 22 21 20 19 18 17 17 16 16 15 15 15 14 15 15 15 15 14 14 14 14 14 14 14 14 14 14 14 14 14 14 14 14 14
21 21 21 22 22 22 23 23 23 22 21 20 19 18 17 17 16 15 15 14 14 14 13 13 13 14 13 13 13 13 13 13 13 13 13 13 13 13 13 13 13 13 13 13
20 20 20 21 22 22 22 22 22 21 20 19 19 18 17 16 15 15 15 14 14 13 13 12 12 12 12 12 12 12 12 12 12 13 13 12 12 12 12 12 12 12 12 12
21 21 21 21 21 21 21 21 21 20 20 19 18 17 16 15 15 14 14 14 13 13 12 12 12 12 12 12 12 12 12 12 12 12 12 12 12 12 12 12 12 11 11 11
20 20 21 20 20 20 20 20 20 19 18 17 17 16 15 15 14 14 13 13 13 12 12 12 12 11 11 11 11 11 11 12 12 12 12 12 12 12 12 12 12 11 11 11
21 20 20 20 20 20 19 18 18 17 16 16 15 15 14 14 13 13 13 13 12 12 12 12 11 11 11 11 11 11 11 11 11 11 11 12 12 12 12 12 11 11 11 10
20 20 19 19 18 18 18 17 16 16 15 15 14 14 14 13 13 13 12 12 12 12 12 12 11 11 11 10 10 10 11 11 11 11 11 11 11 11 11 11 11 11 10 10
19 18 18 17 17 16 16 15 15 14 14 14 13 13 13 13 12 12 12 12 12 12 12 11 11 10 10 10 10 10 10 10 10 10 10 11 11 10 10 10 10 9 9 8
17 17 16 16 15 15 15 14 14 13 13 13 13 12 12 12 12 12 12 12 11 11 11 11 10 10 10 10 10 10 10 10 10 10 10 10 10 9 9 9 8 8 7 7
16 16 15 15 14 14 13 13 13 13 12 12 12 12 12 12 11 11 11 11 11 11 11 10 10 10 9 9 9 9 9 10 10 10 9 9 8 8 8 7 7 6 6 5
15 15 14 14 13 13 12 12 12 12 12 12 12 12 11 11 11 11 11 11 11 11 10 10 10 9 9 9 9 9 9 9 9 9 8 7 7 7 6 6 5 5 5 4
14 14 13 13 13 12 12 12 12 12 12 12 12 12 11 11 11 11 11 11 11 10 10 9 9 9 8 8 8 8 8 8 8 7 7 6 6 5 5 4 4 4 3 3
13 13 13 13 13 13 13 12 12 12 12 12 12 11 11 11 11 11 11 10 10 9 9 9 8 8 8 8 8 8 7 7 7 6 5 5 4 4 4 3 3 2 2 2
13 13 13 13 13 13 13 13 12 12 12 12 11 11 11 11 11 11 10 10 9 9 9 8 8 8 7 7 7 7 7 6 5 5 4 4 3 3 3 2 2 2 2 2
13 13 13 13 13 13 13 12 12 12 12 12 11 11 11 11 11 10 10 9 9 8 8 8 7 7 7 6 6 6 5 4 4 4 3 3 3 2 2 2 1 1 1 1
12 12 12 12 12 12 12 12 12 12 11 11 11 11 11 10 10 10 9 9 8 8 7 7 7 6 6 5 5 4 4 3 3 3 2 2 2 2 1 1 1 1 1 1
12 12 12 12 12 12 12 12 11 11 11 11 11 10 10 10 9 9 8 8 8 7 6 6 6 5 5 4 4 4 3 3 2 2 2 2 1 1 1 1 1 1 1 0
11 11 11 11 12 12 11 11 11 11 11 10 10 10 9 9 9 8 7 7 7 6 5 5 5 4 4 4 3 3 2 2 2 1 1 1 1 1 1 1 1 1 0 0
11 11 11 11 11 11 11 11 11 10 10 10 9 9 9 8 8 7 7 6 6 5 5 4 4 4 3 3 3 2 2 2 2 1 1 1 1 1 1 0 0 0 0 -0
11 11 11 11 11 10 10 10 10 10 9 9 9 8 8 8 7 7 6 6 5 5 4 4 4 4 3 3 3 2 2 2 1 1 1 1 0 0 0 0 0 -0 -0 -1
Wind_Speed
13 8 10 10 12 12 13 12 11 4 3 5 5 3 2 3 5 6 7 6 6 7 6 7 9 9 10 10 10 11 11 12 12 12 11 10 10 10 10 11 12 10 9 9
13 10 9 10 13 14 14 11 9 3 3 8 8 5 3 4 5 6 6 5 4 5 5 4 4 6 6 6 6 7 7 8 9 10 10 10 9 9 9 10 9 9 9 9
12 10 9 11 11 9 9 7 5 1 4 8 8 8 6 7 7 7 7 7 6 5 5 3 3 3 4 4 4 5 5 5 5 7 8 8 9 8 9 9 8 8 8 9
11 9 11 5 2 4 3 2 2 6 7 10 11 11 10 9 9 9 9 9 8 7 7 6 6 5 5 4 4 3 3 2 2 3 5 6 6 6 5 5 6 6 6 7
9 10 9 5 4 4 3 3 5 7 9 11 12 14 12 11 12 12 12 12 11 11 11 10 10 9 8 7 7 8 6 6 5 3 0 2 3 4 4 4 4 4 4 5
9 9 5 2 1 2 2 1 6 6 8 10 10 7 8 10 12 12 13 12 12 13 14 13 11 11 11 10 10 9 8 8 8 8 7 4 3 1 0 1 3 4 5 5
11 7 1 4 2 1 1 2 5 6 6 8 9 10 12 13 12 13 13 13 13 13 13 13 12 12 12 12 11 9 8 8 8 8 6 6 5 3 2 2 2 3 4 5
7 6 2 6 4 5 4 4 4 7 11 14 16 17 15 14 13 13 13 13 13 13 13 12 12 12 12 12 10 9 9 9 8 8 6 5 4 3 3 3 3 4 4 5
2 4 5 5 6 4 5 6 7 9 13 16 17 16 15 14 13 13 13 12 12 12 12 11 11 11 11 9 8 9 9 8 7 5 4 4 4 3 3 2 3 4 4 4
4 6 5 5 6 6 7 6 9 11 13 15 16 16 15 13 12 12 12 12 11 11 11 10 10 10 9 8 7 7 6 4 3 4 4 4 3 4 4 4 4 4 5 5
6 5 6 9 8 7 6 8 11 12 14 15 16 16 15 13 12 11 11 11 10 10 9 9 9 9 9 8 8 7 6 5 4 3 3 2 2 2 2 1 0 2 3 3
5 4 5 6 5 5 8 11 13 15 16 17 16 15 14 13 11 11 11 10 9 9 9 8 8 8 7 7 8 7 7 7 6 5 4 4 3 3 2 3 5 6 6 4
6 5 6 7 9 11 13 15 16 18 17 16 15 14 13 12 11 11 10 9 8 8 7 6 7 7 7 7 7 7 7 6 6 6 7 6 6 6 5 4 5 7 7 6
8 8 10 12 13 14 16 18 18 18 16 15 14 13 12 11 10 9 8 7 6 6 6 6 7 7 7 6 6 7 8 6 6 6 7 7 7 7 7 7 6 4 3 4
11 12 13 15 15 16 16 17 17 16 15 14 13 11 10 9 8 7 6 5 5 6 6 7 7 6 6 7 7 8 8 6 6 7 8 8 7 7 8 8 8 7 7 5
13 14 15 16 15 15 16 16 15 14 13 12 10 9 8 8 7 6 5 5 4 5 4 4 4 4 5 6 7 7 6 5 6 8 9 7 8 9 9 9 9 9 9 9
13 13 14 15 15 15 14 13 12 11 10 9 7 7 6 6 4 3 2 2 2 2 2 3 4 5 5 6 7 9 9 8 8 8 7 8 9 9 9 9 9 9 9 9
14 14 15 15 14 14 13 11 10 9 7 6 6 5 4 3 2 1 2 2 2 1 3 4 4 5 4 6 7 8 9 8 8 8 8 8 8 9 9 9 10 10 10 10
15 15 15 14 12 11 10 8 7 6 5 4 4 4 3 2 1 1 2 2 2 3 4 6 4 5 5 7 8 7 8 8 8 7 8 8 8 8 9 9 9 10 10 10
14 13 12 11 10 8 7 6 5 4 4 3 2 2 1 1 2 2 2 3 4 4 4 4 3 5 6 7 8 8 7 8 8 8 8 8 8 8 8 9 9 9 9 9
10 9 8 7 7 6 6 5 4 4 3 2 1 1 1 2 3 2 1 2 4 4 3 2 4 6 7 8 9 7 7 8 8 7 7 7 7 8 8 9 9 9 9 9
7 7 6 5 5 5 4 3 3 2 1 1 1 1 2 3 2 1 3 3 4 4 3 5 6 7 9 10 7 7 7 8 7 7 7 7 7 8 8 9 8 8 9 9
5 5 4 3 3 3 2 2 1 1 1 2 2 3 4 4 3 1 2 4 4 4 4 6 6 8 11 7 6 7 7 7 7 7 7 7 7 7 8 8 8 8 8 9
2 2 2 3 3 2 2 2 2 2 2 2 2 3 3 3 3 4 5 6 6 5 5 5 5 7 8 4 5 6 6 6 6 6 6 6 6 7 7 7 8 8 8 10
2 2 2 3 3 2 2 2 2 2 2 2 3 3 3 3 3 3 4 5 5 3 5 4 0 4 4 5 5 5 5 5 5 5 6 6 6 7 7 7 8 8 8 9
2 3 2 3 4 4 4 3 2 2 2 2 2 2 2 3 3 3 2 4 5 3 2 3 2 0 3 4 4 4 4 4 4 5 6 6 7 7 8 9 10 9 9 9
3 2 1 3 3 3 4 4 4 4 3 3 3 2 2 2 2 1 2 3 3 2 2 2 2 3 4 4 5 5 5 5 6 6 6 6 7 8 8 10 9 9 10 10
Wind_Direction
255 214 188 209 239 250 259 262 271 249 167 154 153 132 99 118 137 134 131 133 137 144 153 164 170 176 181 184 186 192 191 194 197 197 198 200 202 200 197 197 204 207 209 207
257 239 209 217 228 233 245 258 264 257 121 113 111 104 81 73 92 103 108 110 110 116 124 135 157 167 169 175 177 175 181 187 189 190 193 198 201 200 197 199 205 202 209 214
253 258 248 241 241 249 256 261 273 245 119 116 103 92 81 79 74 71 81 75 68 59 59 79 121 140 147 152 149 150 163 175 178 180 188 193 200 199 201 199 203 213 212 217
245 252 251 263 313 322 308 284 84 95 105 107 103 91 77 69 70 65 61 64 63 66 65 57 58 71 71 74 83 97 116 119 130 168 194 193 190 189 194 196 206 216 226 232
239 244 244 276 340 8 354 6 60 99 108 108 109 100 80 71 73 71 66 63 59 61 61 58 58 63 72 63 62 61 59 54 43 39 78 164 184 194 188 190 202 214 227 240
232 243 246 195 61 357 18 57 45 90 117 123 123 105 96 87 82 77 70 65 61 63 63 57 54 62 67 62 60 56 50 56 52 48 41 41 45 42 11 234 232 241 244 242
235 237 151 70 118 133 150 100 45 70 97 114 104 108 113 102 91 84 78 72 67 64 61 54 50 55 59 55 51 50 53 55 54 53 52 52 38 17 9 345 304 277 273 269
235 231 119 36 56 71 88 81 81 92 104 105 105 110 109 104 96 90 84 79 74 69 63 55 53 57 58 51 44 43 43 47 47 44 41 39 37 11 353 343 314 295 285 283
34 81 84 71 80 100 107 98 101 102 106 112 115 115 112 107 100 92 87 83 80 78 71 63 58 58 57 48 44 46 43 37 33 37 40 29 16 360 342 338 330 329 330 325
98 105 101 82 74 64 71 84 91 101 110 114 115 114 110 105 98 92 87 84 82 78 73 66 60 61 60 53 48 48 44 33 23 30 33 29 5 360 358 356 1 354 340 335
88 87 93 65 58 61 79 89 96 102 107 110 112 110 107 102 97 94 89 82 78 77 77 73 65 57 49 41 32 27 20 9 0 12 22 348 332 324 320 332 276 281 316 325
77 62 73 77 69 85 92 90 96 98 96 98 102 102 99 96 92 89 86 82 78 75 74 73 69 63 51 38 27 16 9 359 352 355 2 349 335 330 289 257 224 223 235 255
67 68 82 84 83 84 92 94 95 97 99 98 97 97 97 96 93 89 84 80 76 73 70 71 73 60 46 35 22 12 352 344 342 348 349 341 337 331 322 294 246 238 243 253
69 80 82 82 86 88 93 95 94 92 91 93 94 93 94 93 89 85 82 79 78 78 69 63 62 53 33 21 12 356 338 340 343 348 341 327 323 324 324 327 331 326 281 264
71 83 90 90 89 90 94 96 95 92 89 86 84 83 83 85 84 81 76 72 68 67 61 55 52 44 24 10 2 341 331 339 351 338 321 320 333 337 337 340 340 340 343 347
86 90 93 94 95 95 96 97 96 93 90 86 82 79 77 78 77 71 60 50 50 55 56 51 45 30 20 12 352 330 328 331 326 321 320 339 349 346 344 343 340 345 347 350
98 99 99 98 96 93 91 91 93 94 94 92 89 84 80 77 71 62 43 33 51 63 64 55 33 10 5 18 356 336 331 330 322 325 348 358 351 343 341 342 344 344 342 353
93 95 99 102 102 99 96 95 95 97 97 95 98 96 90 91 79 52 19 25 12 51 62 58 26 344 11 30 355 328 321 330 341 349 355 4 351 343 351 353 349 345 340 342
96 97 98 99 101 103 104 104 106 104 99 93 90 90 87 66 31 14 3 353 359 49 39 41 5 341 16 28 352 316 322 338 350 360 360 1 356 359 354 350 349 346 344 341
97 100 104 107 109 109 111 114 115 106 92 85 90 86 66 23 347 341 348 26 53 44 27 24 1 15 7 11 342 320 337 356 360 1 2 359 355 354 352 351 347 342 341 341
99 102 104 103 103 100 96 96 93 88 80 75 70 55 342 309 308 321 324 95 78 36 8 39 37 21 11 348 314 327 1 10 4 2 360 357 356 354 352 350 347 344 344 342
86 86 83 81 83 79 74 74 74 75 69 2 323 326 300 288 289 10 74 88 96 40 16 45 44 29 359 331 329 0 18 15 6 4 4 2 0 357 354 351 347 346 344 342
64 63 55 46 54 55 34 23 27 18 348 336 325 322 315 324 331 354 101 80 84 57 52 56 36 11 344 336 5 18 22 19 11 5 6 4 1 358 352 348 347 346 342 339
54 44 26 353 337 342 346 340 330 338 330 310 315 339 340 359 40 62 89 90 73 76 82 79 34 357 330 354 19 21 24 22 14 7 4 2 359 354 350 346 343 340 337 339
31 12 356 324 316 337 349 322 322 346 346 357 20 33 19 41 57 75 93 103 114 110 109 117 100 322 342 25 27 22 28 27 11 359 1 358 354 350 346 342 340 340 342 346
325 313 342 332 340 327 321 328 327 338 348 346 0 5 40 76 82 87 107 116 105 96 98 121 113 289 29 32 30 26 24 27 12 6 5 357 355 351 349 346 348 355 355 359
283 302 306 317 336 345 343 341 339 337 347 354 340 341 3 41 67 104 110 108 108 100 90 83 75 56 45 39 35 30 28 26 18 10 5 5 3 357 358 358 2 5 3 3
Height
1438 1441 1448 1455 1456 1454 1456 1453 1457 1455 1459 1462 1461 1461 1461 1461 1463 1465 1468 1471 1474 1476 1479 1483 1486 1489 1493 1496 1499 1501 1504 1506 1507 1509 1512 1514 1516 1518 1520 1522 1523 1525 1527 1529
1440 1437 1442 1449 1448 1448 1445 1443 1445 1447 1455 1454 1457 1460 1462 1463 1464 1466 1469 1472 1474 1476 1478 1481 1483 1486 1489 1492 1495 1497 1500 1501 1503 1504 1507 1509 1512 1514 1516 1517 1519 1521 1523 1524
1446 1437 1441 1450 1440 1438 1438 1436 1440 1448 1452 1452 1458 1462 1463 1464 1468 1469 1471 1473 1475 1476 1478 1480 1482 1484 1486 1489 1491 1493 1495 1497 1499 1500 1502 1504 1507 1509 1511 1513 1515 1517 1518 1520
1443 1446 1460 1442 1431 1433 1436 1437 1438 1442 1448 1453 1459 1464 1467 1469 1471 1472 1474 1475 1476 1477 1478 1480 1482 1482 1484 1487 1488 1489 1491 1494 1495 1496 1499 1500 1502 1504 1506 1508 1510 1512 1513 1515
1443 1450 1450 1441 1439 1439 1444 1445 1442 1445 1451 1456 1460 1465 1470 1474 1475 1476 1477 1478 1479 1479 1480 1480 1481 1483 1483 1486 1486 1486 1488 1490 1493 1494 1494 1495 1498 1500 1503 1505 1506 1507 1509 1511
1441 1450 1458 1449 1443 1441 1445 1455 1449 1449 1453 1456 1460 1468 1477 1478 1479 1480 1480 1481 1482 1482 1482 1482 1483 1485 1485 1486 1486 1487 1488 1488 1491 1492 1492 1493 1496 1498 1500 1501 1503 1504 1505 1506
1439 1445 1448 1445 1443 1443 1459 1461 1453 1452 1455 1457 1461 1469 1477 1479 1482 1483 1484 1485 1485 1485 1486 1486 1487 1487 1487 1488 1489 1490 1490 1490 1491 1492 1492 1493 1495 1497 1497 1499 1500 1501 1502 1502
1438 1448 1458 1447 1446 1451 1457 1455 1455 1455 1458 1461 1467 1473 1478 1482 1484 1486 1487 1488 1489 1488 1489 1490 1490 1490 1490 1491 1491 1491 1492 1493 1492 1492 1493 1494 1494 1496 1497 1497 1498 1498 1499 1499
1447 1454 1451 1450 1451 1453 1453 1455 1457 1459 1462 1465 1470 1476 1481 1485 1487 1489 1491 1492 1493 1493 1493 1494 1494 1494 1494 1494 1494 1494 1494 1494 1494 1494 1494 1494 1495 1495 1496 1496 1497 1496 1496 1496
1449 1452 1452 1453 1453 1454 1456 1458 1459 1462 1466 1469 1474 1479 1483 1487 1490 1492 1493 1495 1496 1497 1497 1498 1498 1498 1498 1498 1498 1497 1497 1497 1496 1496 1496 1495 1495 1495 1495 1495 1495 1495 1494 1493
1450 1452 1453 1455 1456 1457 1459 1461 1463 1466 1469 1473 1477 1482 1486 1489 1492 1494 1496 1497 1499 1500 1501 1502 1502 1502 1502 1501 1500 1500 1500 1500 1499 1498 1497 1496 1496 1496 1495 1495 1494 1493 1492 1491
1455 1455 1455 1459 1459 1460 1462 1464 1467 1470 1474 1478 1482 1486 1489 1492 1495 1497 1499 1500 1502 1503 1504 1505 1505 1505 1504 1503 1502 1502 1502 1501 1500 1500 1499 1498 1497 1496 1495 1494 1492 1491 1489 1488
1455 1456 1458 1460 1461 1463 1465 1469 1472 1475 1478 1483 1487 1490 1493 1496 1498 1500 1502 1503 1504 1506 1507 1507 1507 1507 1507 1506 1505 1504 1503 1502 1502 1501 1500 1498 1497 1495 1494 1492 1491 1489 1486 1484
1458 1459 1461 1463 1466 1468 1471 1474 1477 1481 1484 1487 1491 1494 1497 1499 1501 1503 1504 1506 1507 1508 1508 1509 1509 1509 1508 1508 1507 1505 1505 1504 1502 1501 1499 1497 1496 1494 1492 1490 1488 1486 1484 1481
1461 1463 1466 1468 1471 1474 1477 1479 1482 1486 1489 1492 1495 1497 1500 1502 1504 1505 1506 1508 1509 1509 1510 1510 1509 1509 1509 1508 1507 1506 1505 1503 1502 1500 1498 1496 1494 1492 1490 1488 1486 1484 1481 1478
1467 1469 1471 1474 1477 1480 1482 1485 1488 1491 1494 1496 1498 1500 1502 1504 1506 1507 1508 1509 1510 1510 1510 1510 1510 1510 1509 1508 1506 1505 1504 1502 1500 1498 1496 1494 1492 1490 1488 1486 1484 1481 1479 1476
1472 1475 1477 1480 1483 1485 1488 1490 1493 1495 1498 1500 1502 1503 1504 1506 1507 1508 1509 1509 1510 1510 1510 1510 1510 1509 1508 1507 1505 1504 1502 1500 1498 1497 1495 1492 1490 1488 1487 1484 1482 1479 1476 1473
1477 1480 1482 1485 1488 1490 1493 1495 1497 1499 1501 1502 1504 1505 1506 1507 1508 1509 1510 1510 1510 1510 1510 1509 1508 1508 1507 1505 1503 1502 1500 1499 1497 1495 1493 1490 1488 1487 1485 1482 1479 1476 1473 1470
1483 1485 1488 1490 1492 1494 1496 1498 1500 1501 1503 1504 1505 1506 1507 1508 1509 1509 1509 1509 1509 1509 1508 1507 1507 1506 1505 1503 1501 1500 1499 1497 1495 1493 1491 1488 1486 1484 1482 1480 1477 1474 1470 1467
1488 1490 1492 1494 1496 1497 1499 1500 1502 1503 1504 1505 1506 1507 1508 1508 1508 1509 1508 1508 1508 1507 1507 1506 1505 1504 1503 1501 1499 1498 1497 1495 1493 1491 1489 1487 1485 1482 1480 1477 1474 1471 1468 1465
1492 1494 1496 1497 1499 1500 1501 1502 1503 1504 1505 1506 1507 1507 1507 1508 1508 1507 1507 1506 1506 1506 1505 1504 1503 1501 1500 1498 1497 1496 1494 1492 1491 1489 1487 1485 1483 1480 1478 1475 1472 1469 1466 1463
1496 1497 1498 1500 1501 1502 1503 1504 1504 1505 1506 1506 1506 1506 1507 1506 1506 1505 1505 1505 1504 1504 1504 1503 1501 1499 1498 1496 1495 1494 1492 1491 1489 1487 1485 1483 1481 1479 1476 1474 1471 1468 1465 1461
1498 1500 1501 1502 1502 1503 1503 1504 1504 1505 1505 1505 1505 1505 1505 1505 1504 1503 1503 1503 1502 1502 1501 1500 1498 1497 1495 1495 1494 1493 1491 1489 1488 1486 1484 1482 1479 1477 1475 1472 1470 1467 1463 1460
1500 1501 1502 1503 1503 1503 1503 1503 1504 1504 1504 1504 1504 1503 1503 1502 1502 1502 1501 1500 1500 1500 1499 1498 1497 1495 1494 1494 1493 1491 1490 1488 1487 1485 1483 1481 1479 1477 1474 1472 1469 1466 1463 1459
1502 1502 1502 1503 1503 1502 1502 1502 1502 1502 1502 1501 1501 1501 1501 1501 1501 1500 1500 1499 1499 1498 1497 1496 1495 1494 1494 1493 1492 1491 1489 1488 1486 1484 1482 1481 1479 1476 1474 1471 1469 1466 1462 1459
1502 1502 1502 1502 1502 1502 1501 1501 1501 1501 1500 1500 1499 1499 1499 1499 1498 1498 1498 1498 1497 1497 1496 1495 1495 1494 1494 1493 1492 1491 1489 1488 1486 1484 1483 1481 1479 1477 1474 1471 1469 1465 1462 1458
1501 1500 1501 1501 1501 1501 1500 1500 1500 1499 1498 1498 1498 1498 1498 1497 1497 1497 1497 1497 1496 1496 1496 1495 1495 1495 1494 1493 1492 1491 1490 1488 1486 1485 1483 1481 1479 1476 1474 1471 1468 1465 1461 1457